Regional Weather Roundup
Issued by NWS

Home | Current Version | Previous Version | Graphics & Text | Print | Product List | Glossary On
Versions: 1 2 3 4 5 6 7 8 9 10 11 12 13 14 15 16 17 18 19 20 21 22 23 24 25 26 27
000
ASUS45 KTFX 170810
RWRMT
MONTANA REGIONAL WEATHER ROUNDUP
NATIONAL WEATHER SERVICE GREAT FALLS MT
200 AM MDT THU AUG 17 2017

NOTE: "FAIR" INDICATES FEW OR NO CLOUDS BELOW 12000 FEET WITH NO
SIGNIFICANT WEATHER AND/OR OBSTRUCTIONS TO VISIBILITY.

MTZ001>007-043-170900-
WEST OF THE DIVIDE

CITY           SKY/WX    TMP DP  RH WIND       PRES   REMARKS
KALISPELL      PTCLDY    57  42  57 W3        29.96R
MISSOULA         N/A     57  39  51 CALM      30.02R
BUTTE          PTCLDY    52  31  44 CALM      30.12S
MULLAN PASS    CLEAR     55  33  43 NW3       30.14S
DEER LODGE       N/A     57  36  44 CALM      30.09F
EUREKA           N/A     64  39  39 MISG      29.94R
HAMILTON         N/A     57  39  51 S3        30.04S
LIBBY            N/A     57  39  51 CALM      29.95R
RONAN            N/A     55  43  64 CALM      30.04R
$$

MTZ008-052>055-170900-
SOUTHWEST MONTANA

CITY           SKY/WX    TMP DP  RH WIND       PRES   REMARKS
BOZEMAN        CLOUDY    59  44  57 SE7       30.04S
DILLON         CLOUDY    54  35  48 S5        30.08R
W YELLOWSTONE  CLOUDY    48  39  71 CALM      30.17S
ENNIS          CLOUDY    61  43  51 S7        30.13S
THREE FORKS      N/A     57  40  53 CALM      30.02S
$$

MTZ009-010-012-014-046-048-049-054-170900-
EAST SLOPES AND CENTRAL MONTANA

CITY           SKY/WX    TMP DP  RH WIND       PRES   REMARKS
CUT BANK       PTCLDY    57  37  47 W7        29.94S
GREAT FALLS    PTCLDY    58  29  33 SW7       29.95S
MALMSTROM AFB  PTCLDY    58  30  33 SW9       29.94S
HELENA         PTCLDY    71  34  25 SW12      30.01S
AUGUSTA          N/A     60  30  32 W12       29.99
BOWMANS CRNR     N/A     57  28  33 S6        29.99R
CHOTEAU          N/A     59  34  38 W3        29.98S
FAIRFIELD        N/A     60  31  33 CALM      29.96R
POWER            N/A     55  31  41 W7        29.95R
RAYNESFORD       N/A     52  30  43 CALM      29.98S
ULM              N/A     57  30  36 S3        29.96S
$$

MTZ011-013-016-021-045-047-050-051-170900-
NORTH CENTRAL MONTANA

CITY           SKY/WX    TMP DP  RH WIND       PRES   REMARKS
HAVRE          CLOUDY    54  35  48 CALM      29.86S
LEWISTOWN      CLOUDY    51  30  44 SE5       29.98R
N BAR RANCH    MOCLDY    54  30  40 NW5       30.01S
CHINOOK          N/A     55  39  54 CALM      29.86S
DENTON           N/A     54  29  38 S10       29.91S
GEYSER           N/A     59  27  29 SW14      29.96
GRASS RANGE      N/A     58  28  32 W6        29.92S
JUDITH GAP     MOCLDY    59  27  29 W6        30.00S
WINIFRED       MOCLDY    63  29  28 W9        29.93S
$$

MTZ017>020-022>027-061-062-170900-
NORTHEAST MONTANA

CITY           SKY/WX    TMP DP  RH WIND       PRES   REMARKS
GLASGOW        CLEAR     60  44  55 E7        29.82S
JORDAN           N/A     57  35  43 W5        29.85S
SIDNEY         CLEAR     63  52  67 S10       29.83F
WOLF POINT     CLEAR     59  48  67 E3        29.81S
MALTA          PTCLDY    52  43  71 W5        29.84S
PLENTYWOOD       N/A     66  55  68 SE10      29.83F
POPLAR           N/A     63  52  67 E6        29.81F
$$

MTZ028>42-056>058-170900-
SOUTHCENTRAL AND SOUTHEAST MONTANA

CITY           SKY/WX    TMP DP  RH WIND       PRES   REMARKS
BAKER          CLEAR     57  48  72 E9        29.89F
BILLINGS       CLEAR     69  40  34 CALM      29.93S
LIVINGSTON     CLOUDY    56  40  55 W5        30.03R
MILES CITY     CLEAR     65  40  39 S7        29.84S
BIG TIMBER     MOCLDY    64  36  34 W9        30.03S
FORSYTH          N/A     68  34  28 CALM      29.85S
HARLOWTON      MOCLDY    59  26  28 MISG      30.00
LAUREL           N/A     63  38  39 CALM      29.93S
$$

REGIONAL REPORTS...DAKOTAS

CITY           SKY/WX    TMP DP  RH WIND       PRES   REMARKS
WILLISTON      PTCLDY    68  53  58 E6        29.85F
MINOT          PTCLDY    60  53  77 SW9       29.88S
DICKINSON      CLEAR     57  53  86 S9        29.89F
BEACH            N/A     59  50  72 SE14      29.90F
CROSBY         MOCLDY    64  54  68 S7        29.85F
TIOGA          LGT RAIN  64  61  88 S12G20    29.90F
WATFORD CITY     N/A     61  55  82 SE7       29.85F
BISMARCK       MOCLDY    55  54  96 CALM      29.91F
GRAND FORKS    CLOUDY    60  60 100 N12       29.80F FOG
FARGO          CLOUDY    63  62  97 N17       29.76F
BUFFALO SD       N/A     59  49  69 S10       29.86F
RAPID CITY     CLEAR     55  50  83 SE6       29.97F
$$

REGIONAL REPORTS...WYOMING/IDAHO/WASHINGTON

CITY           SKY/WX    TMP DP  RH WIND       PRES   REMARKS
GILLETTE       CLOUDY    64  39  39 S17       29.98F
SHERIDAN       CLOUDY    59  45  59 CALM      29.95S
BUFFALO WY     PTCLDY    66  35  31 VRB5      30.02F
CODY           CLOUDY    64  40  41 S7        30.04F
YELLOWSTONE LA   N/A     43  39  86 CALM      30.26F
IDAHO FALLS    CLEAR     65  40  39 S10       30.06S
SALMON         CLEAR     62  35  36 SE5       30.06R
BOISE          CLEAR     64  37  36 S3        30.00R
SPOKANE        PTCLDY    69  44  40 SW9       29.94S
$$

REGIONAL REPORTS...ALBERTA

CITY           SKY/WX    TMP DP  RH WIND       PRES   REMARKS
EDMONTON       MOCLDY    55  50  82 W7        29.90R
CALGARY        MOCLDY    57  46  67 N8        29.97R SMOKE
LETHBRIDGE     PTCLDY    64  41  42 W10       29.87S
MEDICINE HAT   PTCLDY    57  52  82 S6        29.84S
$$

REGIONAL REPORTS...SASKATCHEWAN

CITY           SKY/WX    TMP DP  RH WIND       PRES   REMARKS
SWIFT CURRENT  MOCLDY    57  43  58 E12       29.86S
REGINA         PTCLDY    64  45  48 NE12      29.88R
SASKATOON      CLOUDY    57  48  72 SW5       29.84F
$$




USA.gov is the U.S. government's official web portal to all federal, state and local government web resources and services.